Home > Weather > Palma > Past weeks

Flag for Spain Past Weather in Palma, Majorca, Spain — Yesterday and Last 2 Weeks

Now
68 °F

Sunny.


Feels Like: 68 °F
Forecast: 56 / 75 °F
Wind: No wind

Location: Palma De Mallorca / Son San Juan

Current Time: May 30, 2016 at 9:04:24 AM

Latest Report: May 30, 2016 at 8:30 AM


Visibility: 10 mi

Pressure: 29.98 "Hg

Humidity: 78%

Dew Point: 61 °F

Location of PalmaLocation

Past Weather in Palma — Graph

°F

Palma Temperature Yesterday

Maximum temperature yesterday: 77 °F (at 11:30 AM)
Minimum temperature yesterday: 66 °F (at 6:30 AM)
Average temperature yesterday: 71 °F

High & Low Weather Summary for the Past Weeks

 TemperatureHumidityPressure
High77 °F (May 19, 4:30 PM)100% (May 16, 4:30 AM)30.24 "Hg (May 16, 4:30 AM)
Low52 °F (May 16, 6:00 AM)32% (May 19, 7:00 PM)29.80 "Hg (May 26, 7:30 PM)
Average66 °F76%30.02 "Hg
* Reported May 15 8:00 AM — May 30 8:00 AM, Palma, Weather by CustomWeather, © 2016

Note: Actual official high and low records may vary slightly from our data, if they occured in-between our weather recording intervals... More about our weather records

Advertising

Palma Weather History for the Previous 24 Hours

Scroll right to see more
 ConditionsComfort  
Time TempWeatherWind HumidityBarometerVisibility
8:00 AM
Mon, May 30
63 °FSunny.2 mph88%29.98 "Hg10 mi
7:30 AM59 °FSunny.5 mph94%29.95 "Hg10 mi
7:00 AM57 °FClear.1 mph94%29.95 "Hg10 mi
6:30 AM57 °FClear.No wind94%29.95 "Hg10 mi
6:00 AM57 °FClear.1 mph94%29.95 "Hg10 mi
5:30 AM57 °FClear.2 mph94%29.95 "Hg10 mi
4:30 AM57 °FClear.2 mph94%29.95 "Hg10 mi
4:00 AM59 °FClear.2 mph94%29.98 "Hg10 mi
3:30 AM61 °FClear.1 mph88%29.98 "Hg10 mi
3:00 AM61 °FClear.2 mph88%29.98 "Hg10 mi
2:30 AM63 °FClear.1 mph83%29.98 "Hg10 mi
2:00 AM66 °FClear.3 mph78%30.01 "Hg10 mi
1:30 AM66 °FClear.7 mph78%30.01 "Hg10 mi
1:00 AM66 °FClear.6 mph78%30.01 "Hg10 mi
12:30 AM66 °FClear.5 mph83%30.01 "Hg10 mi
12:00 AM68 °FClear.5 mph78%30.04 "Hg10 mi
11:30 PM
Sun, May 29
68 °FClear.5 mph78%30.01 "Hg10 mi
11:00 PM68 °FClear.8 mph78%30.01 "Hg10 mi
10:30 PM68 °FPassing clouds.5 mph78%30.01 "HgN/A
10:00 PM68 °FSunny.1 mph73%30.01 "Hg10 mi
9:30 PM68 °FSunny.6 mph73%29.98 "Hg10 mi
9:00 PM70 °FSunny.9 mph69%29.98 "Hg10 mi
8:30 PM70 °FSunny.9 mph69%29.98 "Hg10 mi
8:00 PM72 °FPassing clouds.12 mph65%29.98 "HgN/A
7:30 PM72 °FSunny.14 mph65%29.98 "Hg10 mi
7:00 PM72 °FPassing clouds.14 mph61%29.98 "HgN/A
6:30 PM73 °FPassing clouds.14 mph53%29.95 "HgN/A
6:00 PM73 °FPassing clouds.17 mph57%29.98 "HgN/A
5:30 PM75 °FPassing clouds.18 mph50%29.98 "HgN/A
5:00 PM75 °FPassing clouds.17 mph50%29.95 "HgN/A
4:30 PM77 °FPassing clouds.18 mph44%29.95 "HgN/A
4:00 PM77 °FPassing clouds.20 mph44%29.98 "HgN/A
3:30 PM75 °FPassing clouds.20 mph47%29.95 "HgN/A
3:00 PM77 °FPassing clouds.21 mph47%29.98 "HgN/A
2:30 PM75 °FPassing clouds.24 mph54%29.95 "HgN/A
2:00 PM75 °FPassing clouds.22 mph50%29.95 "HgN/A
1:30 PM75 °FPassing clouds.25 mph57%29.95 "HgN/A
1:00 PM75 °FPassing clouds.23 mph54%29.95 "HgN/A
12:30 PM77 °FPassing clouds.20 mph51%29.95 "HgN/A
12:00 PM77 °FPassing clouds.20 mph36%29.95 "HgN/A
11:30 AM77 °FPassing clouds.17 mph34%29.95 "HgN/A
11:00 AM75 °FPassing clouds.16 mph54%29.95 "HgN/A
10:30 AM75 °FScattered clouds.14 mph54%29.95 "HgN/A
10:00 AM73 °FPassing clouds.12 mph53%29.95 "HgN/A
9:30 AM73 °FPassing clouds.9 mph47%29.95 "HgN/A
9:00 AM72 °FPassing clouds.7 mph57%29.95 "HgN/A
Weather by CustomWeather, © 2016

See weather overviewHow to use our weather pages